Gold Coast Seaway Observation History
Time Wind Speed Temp Pressure Rel. Hum Rain
04/07:00am S 11-16 kts 15.0°c 1026.4 hPa 56% 0.0mm
04/06:30am S 9-13 kts 14.6°c 1026.1 hPa 58% 0.0mm
04/06:00am SSW 8-12 kts 14.3°c 1025.8 hPa 57% 0.0mm
04/05:30am SSW 9-16 kts 14.8°c 1025.5 hPa 55% 0.0mm
04/05:00am SSW 9-13 kts 14.3°c 1025.0 hPa 54% 0.0mm
04/04:30am SSW 9-14 kts 13.9°c 1024.8 hPa 53% 0.0mm
04/04:00am S 9-14 kts 13.9°c 1024.9 hPa 52% 0.0mm
04/03:30am S 9-12 kts 13.7°c 1025.0 hPa 54% 0.0mm
04/03:00am SSW 10-16 kts 14.0°c 1024.8 hPa 60% 0.0mm
04/02:30am SSW 7-11 kts 13.5°c 1025.0 hPa 64% 0.0mm
04/02:00am SW 6-9 kts 14.3°c 1025.0 hPa 62% 0.0mm
04/01:30am SSW 8-12 kts 14.9°c 1025.1 hPa 61% 0.0mm
04/01:00am SSW 7-12 kts 14.9°c 1025.1 hPa 61% 0.0mm
04/12:30am SSW 8-12 kts 14.9°c 1025.1 hPa 61% 0.0mm
04/12:00am SSW 7-10 kts 15.0°c 1025.2 hPa 61% 0.0mm
Time Wind Speed Temp Pressure Rel. Hum Rain
03/11:30pm SSW 6-8 kts 15.4°c 1025.1 hPa 60% 0.0mm
03/11:00pm SSW 7-10 kts 15.6°c 1025.0 hPa 60% 0.0mm
03/10:30pm SSW 9-14 kts 15.9°c 1025.1 hPa 60% 0.0mm
03/10:00pm SSW 9-14 kts 15.8°c 1025.1 hPa 61% 0.0mm
03/09:30pm SSW 7-10 kts 15.1°c 1025.1 hPa 64% 0.0mm
03/09:00pm SSW 8-10 kts 15.7°c 1024.8 hPa 62% 0.0mm
03/08:30pm SSW 8-12 kts 15.6°c 1024.7 hPa 61% 0.0mm
03/08:00pm SSW 9-13 kts 15.5°c 1024.5 hPa 60% 0.0mm
03/07:30pm SSW 9-14 kts 15.4°c 1024.2 hPa 57% 0.0mm
03/07:00pm S 9-13 kts 15.8°c 1023.7 hPa 53% 0.0mm
03/06:30pm S 13-17 kts 16.4°c 1023.2 hPa 49% 0.0mm
03/06:00pm SSE 17-21 kts 17.4°c 1022.5 hPa 55% 0.0mm
03/05:30pm SSE 15-19 kts 17.9°c 1022.0 hPa 58% 0.0mm
03/05:00pm SE 8-10 kts 17.6°c 1021.3 hPa 53% 0.0mm
03/04:30pm SE 9-12 kts 18.1°c 1021.1 hPa 51% 0.0mm
03/04:00pm ESE 7-9 kts 18.7°c 1020.6 hPa 48% 0.0mm
03/03:30pm E 7-8 kts 19.0°c 1020.2 hPa 43% 0.0mm
03/03:00pm ESE 7-9 kts 19.3°c 1020.0 hPa 36% 0.0mm
03/02:30pm E 6-8 kts 19.5°c 1019.8 hPa 35% 0.0mm
03/02:00pm E 7-9 kts 19.9°c 1019.7 hPa 35% 0.0mm
03/01:30pm E 7-9 kts 19.6°c 1019.6 hPa 35% 0.0mm
03/01:00pm E 7-9 kts 19.7°c 1019.8 hPa 35% 0.0mm
03/12:30pm ESE 8-9 kts 20.1°c 1020.1 hPa 32% 0.0mm
03/12:00pm SE 6-8 kts 20.0°c 1020.5 hPa 31% 0.0mm
03/11:30am ESE 5-8 kts 20.0°c 1020.7 hPa 33% 0.0mm
03/11:00am NW 3-5 kts 19.3°c 1021.0 hPa 31% 0.0mm
03/10:30am NW 6-7 kts 17.8°c 1021.4 hPa 38% 0.0mm
03/10:00am NW 7-8 kts 16.9°c 1021.4 hPa 42% 0.0mm
03/09:30am NW 8-10 kts 15.6°c 1021.3 hPa 43% 0.0mm
03/09:00am NW 8-10 kts 14.8°c 1021.4 hPa 46% 0.0mm
03/08:30am NW 9-10 kts 13.6°c 1021.3 hPa 50% 0.0mm
03/08:00am NW 8-10 kts 12.4°c 1021.1 hPa 56% 0.0mm
03/07:30am WNW 8-9 kts 11.0°c 1020.9 hPa 57% 0.0mm
03/07:00am WNW 8-9 kts 10.4°c 1020.4 hPa 63% 0.0mm
03/06:30am WNW 8-9 kts 10.1°c 1020.0 hPa 65% 0.0mm
03/06:00am WNW 8-9 kts 10.3°c 1019.9 hPa 64% 0.0mm
03/05:30am NW 8-9 kts 10.9°c 1019.5 hPa 63% 0.0mm
03/05:00am NW 6-8 kts 11.1°c 1019.1 hPa 57% 0.0mm
03/04:30am WNW 8-10 kts 11.7°c 1018.8 hPa 54% 0.0mm
03/04:00am NW 7-9 kts 12.3°c 1018.6 hPa 53% 0.0mm
03/03:30am NW 9-11 kts 12.3°c 1018.5 hPa 49% 0.0mm
03/03:00am WNW 9-10 kts 12.4°c 1018.4 hPa 49% 0.0mm
03/02:30am NW 11-13 kts 12.6°c 1018.4 hPa 46% 0.0mm
03/02:00am WNW 10-12 kts 12.8°c 1018.5 hPa 46% 0.0mm
03/01:30am W 9-14 kts 13.0°c 1018.7 hPa 44% 0.0mm
03/01:00am W 11-15 kts 13.2°c 1018.8 hPa 43% 0.0mm
03/12:30am WNW 15-18 kts 13.5°c 1018.8 hPa 43% 0.0mm
03/12:25am WNW 14-17 kts 13.6°c 1018.9 hPa 44% 0.0mm
03/12:00am NW 5-7 kts 13.0°c 1019.7 hPa 42% 0.0mm
Time Wind Speed Temp Pressure Rel. Hum Rain
02/11:30pm W 9-13 kts 13.8°c 1019.4 hPa 39% 0.0mm
02/11:00pm WNW 13-17 kts 14.4°c 1019.5 hPa 38% 0.0mm
02/10:30pm WNW 13-16 kts 14.3°c 1019.6 hPa 39% 0.0mm
02/10:00pm WNW 17-20 kts 14.5°c 1019.5 hPa 37% 0.0mm
02/09:30pm WNW 7-10 kts 14.2°c 1019.9 hPa 38% 0.0mm
02/09:00pm NW 9-11 kts 14.7°c 1019.6 hPa 36% 0.0mm
02/08:30pm W 12-16 kts 14.7°c 1019.1 hPa 35% 0.0mm
02/08:00pm W 15-19 kts 15.4°c 1018.9 hPa 34% 0.0mm
02/07:30pm W 17-21 kts 15.8°c 1018.5 hPa 34% 0.0mm
02/07:00pm W 18-21 kts 15.9°c 1018.5 hPa 32% 0.0mm
02/06:30pm WNW 16-20 kts 16.3°c 1018.2 hPa 30% 0.0mm
02/06:00pm W 8-12 kts 16.3°c 1018.0 hPa 31% 0.0mm
02/05:30pm NW 6-9 kts 16.6°c 1017.7 hPa 29% 0.0mm
02/05:00pm WNW 15-19 kts 17.6°c 1016.7 hPa 27% 0.0mm
02/04:30pm W 16-22 kts 18.5°c 1016.3 hPa 25% 0.0mm
02/04:00pm W 16-22 kts 19.1°c 1016.1 hPa 23% 0.0mm
02/03:30pm WNW 17-22 kts 19.6°c 1015.8 hPa 22% 0.0mm
02/03:00pm W 15-22 kts 19.9°c 1015.6 hPa 21% 0.0mm
02/02:30pm W 17-23 kts 20.0°c 1015.5 hPa 22% 0.0mm
02/02:00pm W 13-21 kts 19.8°c 1016.0 hPa 21% 0.0mm
02/01:30pm WSW 11-17 kts 20.1°c 1015.9 hPa 22% 0.0mm
02/01:00pm W 12-19 kts 19.6°c 1015.8 hPa 23% 0.0mm
02/12:30pm W 13-19 kts 19.3°c 1016.3 hPa 24% 0.0mm
02/12:00pm W 16-21 kts 18.9°c 1017.0 hPa 26% 0.0mm
02/11:30am WSW 10-17 kts 19.3°c 1017.5 hPa 30% 0.0mm
02/11:00am WSW 10-15 kts 18.5°c 1017.6 hPa 29% 0.0mm
02/10:30am W 8-14 kts 17.9°c 1017.9 hPa 29% 0.0mm
02/10:00am W 7-12 kts 17.5°c 1018.0 hPa 30% 0.0mm
02/09:30am WNW 13-17 kts 17.1°c 1017.8 hPa 34% 0.0mm
02/09:00am W 18-23 kts 16.4°c 1017.4 hPa 35% 0.2mm
02/08:30am W 18-24 kts 16.0°c 1017.0 hPa 40% 0.2mm
02/08:00am W 12-17 kts 15.9°c 1016.9 hPa 44% 0.2mm
02/07:30am WNW 16-20 kts 15.8°c 1016.8 hPa 45% 0.2mm
02/07:00am WNW 18-22 kts 15.8°c 1016.5 hPa 47% 0.2mm
02/06:30am WNW 20-26 kts 15.8°c 1016.0 hPa 49% 0.2mm
02/06:00am WNW 18-23 kts 16.2°c 1015.6 hPa 48% 0.2mm
02/05:30am WNW 15-18 kts 16.1°c 1015.3 hPa 50% 0.2mm
02/05:00am WNW 13-16 kts 16.2°c 1014.9 hPa 51% 0.2mm
02/04:30am WNW 11-14 kts 16.3°c 1014.5 hPa 58% 0.2mm
02/04:00am NW 10-14 kts 16.6°c 1014.2 hPa 60% 0.2mm
02/03:30am NNW 5-7 kts 16.5°c 1014.3 hPa 65% 0.2mm
02/03:00am NW 6-7 kts 16.1°c 1014.2 hPa 75% 0.2mm
02/02:30am NNW 6-7 kts 16.6°c 1014.2 hPa 85% 0.2mm
02/02:00am NNW 7-10 kts 17.2°c 1014.0 hPa 85% 0.2mm
02/01:30am NNW 10-14 kts 17.4°c 1014.0 hPa 86% 0.2mm
02/01:00am NNW 9-13 kts 17.5°c 1013.8 hPa 85% 0.2mm
02/12:30am NNW 9-13 kts 17.8°c 1013.9 hPa 84% 0.2mm
02/12:00am NNW 9-12 kts 18.0°c 1014.1 hPa 83% 0.2mm